Tracking 19854 objects as of 24-Sep-2019
HD Live streaming from Space Station
objects crossing your sky now

DELTA 1 DEB

Track DELTA 1 DEB now!
10-day predictions


NORAD ID: 12170
Int'l Code: 1978-026K
Perigee: 805.1 km
Apogee: 867.9 km
Inclination: 98.9 °
Period: 101.5 minutes
Semi major axis: 7207 km
RCS: 0.045 m2 (small)
Launch date: March 5, 1978
Source: United States (US)
Launch site: AIR FORCE WESTERN TEST RANGE (AFWTR)

Note: This is SATELLITE DEBRIS
aabbcc
Your satellite tracking list
Your tracking list is empty




NASA's NSSDC Master Catalog

Two Line Element Set (TLE):
1 12170U 78026K   19266.45947314  .00000071  00000-0  55163-4 0  9997
2 12170  98.8660 247.1466 0043577 231.0529 258.0039 14.18820415994315
Source of the keplerian elements: AFSPC